Weather History for PATC - October, 2012

Change the Weather History Date:

Friday, October 26, 2012

  Actual Average Record
Temperature  
Mean Temperature 30 °F -  
Max Temperature 32 °F 27 °F 39 °F (2013)
Min Temperature 27 °F 21 °F 1 °F (1999)
Degree Days  
Heating Degree Days 35    
Moisture  
Dew Point 31 °F    
Average Humidity 100    
Maximum Humidity 100    
Minimum Humidity 99    
Precipitation  
Precipitation 0.00 in - - ()
Sea Level Pressure  
Sea Level Pressure 30.38 in    
Wind  
Wind Speed 15 mph (SSW)    
Max Wind Speed 24 mph    
Max Gust Speed -    
Visibility 3 miles    
Events Fog    
Averages and records for this station are not official NWS values.
T = Trace of Precipitation, MM = Missing Value Source: NWS Daily Summary

Daily Weather History Graph

Daily Weather History Graph

Search for Another Location

Airport or City:

Trip Planner

Search our weather history database for the weather conditions in past years. The results will help you decide how hot, cold, wet, or windy it might be!

Date:

Astronomy

Oct. 26, 2012 Rise Set
Actual Time 10:45 AM AKDT 7:04 PM AKDT
Civil Twilight 9:50 AM AKDT 7:58 PM AKDT
Nautical Twilight 8:51 AM AKDT 8:58 PM AKDT
Astronomical Twilight 7:53 AM AKDT 9:56 PM AKDT
Moon 6:09 PM AKDT (10/26) 7:01 AM AKDT (10/26)
Length of Visible Light 10h 07m
Length of Day
8h 18m
Waxing Gibbous, 92% of the Moon is Illuminated
Oct 26
Waxing Gibbous
Oct 29
Full
Nov 6
Last Quarter
Nov 13
New
Nov 20
First Quarter

Hourly Weather History & Observations

Time (AKDT) Temp. Windchill Dew Point Humidity Pressure Visibility Wind Dir Wind Speed Gust Speed Precip Events Conditions
12:55 AM 32.4 °F 19.4 °F 32.7 °F 100% 30.43 in 7.0 mi South 24.2 mph - N/A   Scattered Clouds
1:55 AM 32.4 °F 20.6 °F 32.7 °F 100% 30.43 in 6.0 mi South 19.6 mph - N/A   Partly Cloudy
2:55 AM 32.5 °F 20.8 °F 32.7 °F 100% 30.41 in 10.0 mi SSW 19.6 mph - N/A   Mostly Cloudy
3:55 AM 32.7 °F 21.4 °F 32.5 °F 99% 30.41 in 9.0 mi SW 18.4 mph - N/A   Overcast
4:55 AM 32.0 °F 21.2 °F 32.0 °F 100% 30.40 in 8.0 mi SW 16.1 mph - N/A   Overcast
5:55 AM - - - N/A% 30.40 in 4.0 mi SSW 15.0 mph - N/A   Overcast
6:28 AM - - - N/A% 30.39 in 1.0 mi SW 17.3 mph - N/A   Mostly Cloudy
6:48 AM 30.2 °F 18.9 °F 30.2 °F 100% 30.39 in 0.2 mi SW 16.1 mph - N/A Fog Light Freezing Fog
6:55 AM 30.0 °F 18.7 °F 30.6 °F 100% 30.39 in 0.2 mi SW 16.1 mph - N/A Fog Light Freezing Fog
7:55 AM 29.3 °F 18.6 °F 30.2 °F 100% 30.39 in 0.2 mi SW 13.8 mph - N/A Fog Light Freezing Fog
8:53 AM 30.2 °F 18.1 °F 30.2 °F 100% 30.38 in 0.5 mi SW 18.4 mph - N/A Fog Light Freezing Fog
8:55 AM 29.3 °F 17.3 °F 30.2 °F 100% 30.38 in 0.5 mi SW 17.3 mph - N/A Fog Light Freezing Fog
9:15 AM 30.2 °F 18.9 °F 30.2 °F 100% 30.38 in 0.2 mi SSW 16.1 mph - N/A Fog Light Freezing Fog
9:35 AM 30.2 °F 18.1 °F 30.2 °F 100% 30.38 in 0.5 mi SSW 18.4 mph - N/A Fog Light Freezing Fog
9:55 AM 29.5 °F 18.0 °F 30.4 °F 100% 30.39 in 0.5 mi SSW 16.1 mph - N/A Fog Light Freezing Fog
10:10 AM 30.2 °F 18.5 °F 30.2 °F 100% 30.39 in 2.0 mi SSW 17.3 mph - N/A   Mostly Cloudy
10:30 AM 30.2 °F 18.9 °F 30.2 °F 100% 30.39 in 4.0 mi SW 16.1 mph - N/A   Mostly Cloudy
10:55 AM 29.8 °F 19.3 °F 30.6 °F 100% 30.39 in 3.0 mi SSW 13.8 mph - N/A   Overcast
11:55 AM 29.7 °F 17.8 °F 30.2 °F 100% 30.40 in 4.0 mi South 17.3 mph - N/A   Overcast
12:55 PM 29.8 °F 19.3 °F 30.4 °F 100% 30.39 in 4.0 mi SSW 13.8 mph - N/A   Overcast
1:55 PM 30.0 °F 19.5 °F 30.6 °F 100% 30.39 in 4.0 mi SSW 13.8 mph - N/A   Mostly Cloudy
2:55 PM 29.8 °F 19.8 °F 30.2 °F 100% 30.39 in 7.0 mi SSW 12.7 mph - N/A   Overcast
3:55 PM 29.8 °F 20.3 °F 30.2 °F 100% 30.39 in 5.0 mi South 11.5 mph - N/A   Overcast
4:55 PM 29.7 °F 22.8 °F 30.0 °F 100% 30.38 in 6.0 mi SSW 6.9 mph - N/A   Overcast
5:55 PM 29.7 °F 23.7 °F 30.0 °F 100% 30.37 in 5.0 mi South 5.8 mph - N/A   Mostly Cloudy
6:55 PM - - - N/A% 30.35 in 3.0 mi South 5.8 mph - N/A   Mostly Cloudy
7:20 PM - - - N/A% 30.36 in 2.5 mi South 5.8 mph - N/A   Mostly Cloudy
7:55 PM - - - N/A% 30.36 in 3.0 mi South 6.9 mph - N/A   Overcast
8:26 PM - - - N/A% 30.36 in 2.0 mi SSE 8.1 mph - N/A   Mostly Cloudy
8:46 PM - - - N/A% 30.36 in 3.0 mi South 5.8 mph - N/A   Mostly Cloudy
8:55 PM - - - N/A% 30.36 in 2.0 mi SSW 4.6 mph - N/A   Mostly Cloudy
9:06 PM - - - N/A% 30.37 in 1.5 mi SSW 5.8 mph - N/A   Mostly Cloudy
9:26 PM - - - N/A% 30.37 in 3.0 mi South 5.8 mph - N/A   Mostly Cloudy
9:46 PM - - - N/A% 30.36 in 1.8 mi SSE 5.8 mph - N/A   Mostly Cloudy
9:55 PM - - - N/A% 30.37 in 1.2 mi South 5.8 mph - N/A   Mist
10:06 PM - - - N/A% 30.36 in 3.0 mi South 5.8 mph - N/A   Mostly Cloudy
10:55 PM - - - N/A% 30.36 in 1.5 mi South 3.5 mph - N/A   Mostly Cloudy
11:11 PM - - - N/A% 30.35 in 0.5 mi South 3.5 mph - N/A Fog Fog
11:31 PM 28.4 °F - 28.4 °F 100% 30.36 in 0.8 mi Variable 1.2 mph - N/A   Mist
11:55 PM 27.9 °F - 28.6 °F 100% 30.36 in 1.0 mi Variable 2.3 mph - N/A   Mist